Miscellaneous Local Product
Issued by NWS North Platte, NE

Home | Current Version | Previous Version | Graphics & Text | Print | Product List | Glossary On
Versions: 1 2 3 4 5 6 7 8 9 10 11 12 13 14 15 16 17 18 19 20 21 22 23 24 25 26 27 28 29 30 31 32 33 34 35 36 37 38 39 40 41 42 43 44 45 46 47 48 49 50
000
AXUS43 KLBF 231710
MISLBF


WESTERN AND NORTH CENTRAL NEBRASKA HOURLY WEATHER ROUNDUP
NATIONAL WEATHER SERVICE NORTH PLATTE NE
1100 AM CST MON JAN 23 2017

NOTE: "FAIR" INDICATES FEW OR NO CLOUDS BELOW 12,000 FEET WITH NO
SIGNIFICANT WEATHER AND/OR OBSTRUCTIONS TO VISIBILITY.

NOTE: STATIONS NOT REPORTING VARIABLES SUCH AS SKY/WEATHER OR
PRESSURE ARE PROVIDED BY RAWS AND APRS NETWORKS AND ARE NOT UNDER
NATIONAL WEATHER SERVICE QUALITY CONTROL.

...OBSERVATIONS IN AND NEAR THE EASTERN PANHANDLE OF NEBRASKA...

CITY           SKY/WX    TMP DP  RH WIND       PRES   REMARKS
PINE RIDGE     CLOUDY    36  31  82 NW3       29.64F
CHADRON        SUNNY     35  26  69 CALM      29.63F
ALLIANCE       CLOUDY    37  26  64 S8        29.63F WCI  31
SIDNEY         MOSUNNY   38  24  57 W5        29.64S WCI  34
CRESCENT LAKE    N/A     39  28  63 S5          N/A
$$

...OBSERVATIONS IN NORTHERN NEBRASKA AND FAR SOUTHERN SOUTH DAKOTA...

CITY           SKY/WX    TMP DP  RH WIND       PRES   REMARKS
WINNER         CLOUDY    29  27  92 SE12      29.78F WCI  19
VALENTINE      CLOUDY    28  25  88 E6        29.73F WCI  22
THEDFORD       CLOUDY    36  30  78 SE8       29.73F WCI  30
AINSWORTH      CLOUDY    33  31  92 S10       29.75S WCI  25
O`NEILL        CLOUDY   N/A N/A N/A S5        29.83R HAZE
ORD            CLOUDY    29  26  89 E7        29.80F WCI  22
BROKEN BOW     CLOUDY    33  30  88 SE10      29.77F WCI  25
VALENTINE NWR    N/A     50  26  39 S10         N/A
BUTTE            N/A     27  26  94 SE9         N/A  WCI  18
HALSEY           N/A     50  28  42 SE6         N/A
SARGENT          N/A     31  24  73 E5          N/A  WCI  26
CHAMBERS         N/A     30  28  92 S3          N/A
EWING            N/A     28  27  96 S3          N/A
$$

...OBSERVATIONS IN SOUTHWEST NEBRASKA AND FAR NORTHEAST COLORADO...

CITY           SKY/WX    TMP DP  RH WIND       PRES   REMARKS
HOLYOKE        FAIR      41  30  65 SW3       29.65S
IMPERIAL       SUNNY     40  27  59 S15       29.65F WCI  32
OGALLALA       MOSUNNY   40  30  65 SE9       29.67F WCI  35
NORTH PLATTE   CLOUDY    37  30  75 E10       29.72F WCI  30
MCCOOK         SUNNY     43  31  62 S15       29.72F
LEXINGTON      MOSUNNY   38  32  79 SE12      29.77S WCI  30
STAPLETON        N/A     37  31  78 CALM        N/A
GOTHENBURG       N/A     35  30  82 E8          N/A  WCI  28
CALLAWAY         N/A     37  31  79 SE12        N/A  WCI  29
$$

...OBSERVATIONS IN CENTRAL LINCOLN COUNTY AREA...

CITY           SKY/WX    TMP DP  RH WIND       PRES   REMARKS
N.P. AIRPORT   CLOUDY    37  30  75 E10       29.72F WCI  30
N.P. SOUTHEAST   N/A     36  30  79 SE5         N/A  WCI  32
N.P. HILLCREST   N/A     38  31  74 SE12        N/A  WCI  30
$$

...SOME OBSERVATIONS FROM AROUND THE REGION...

CITY           SKY/WX    TMP DP  RH WIND       PRES   REMARKS
LARAMIE        LGT SNOW  26  22  84 SE7       29.61S FOG     WCI  18
CHEYENNE       CLOUDY    41  21  44 W6        29.61R
DENVER         MOSUNNY   46  23  40 SW16      29.61F
AKRON          MOSUNNY   38  22  52 W14       29.62S WCI  30
SCOTTSBLUFF    SUNNY     34  24  67 E3        29.64F
RAPID CITY     CLOUDY    21  20  96 SE5       29.64F WCI  15
BISMARCK       CLOUDY    30  24  78 SW3       29.80S
PIERRE         CLOUDY    27  24  89 E13       29.78F WCI  16
SIOUX FALLS    CLOUDY    30  28  92 NW6       29.85F WCI  24
OMAHA          CLOUDY    34  27  75 N3        29.91R
GRAND ISLAND   CLOUDY    29  29 100 SE7       29.84F FOG     WCI  22
KANSAS CITY    CLOUDY    33  30  88 N7        29.91S FOG     WCI  27
WICHITA        PTSUNNY   43  34  70 S10       29.91F
OKLAHOMA CITY  MOSUNNY   48  32  53 S10       29.96R
DALLAS         SUNNY     54  33  45 CALM      29.97F
AMARILLO       SUNNY     56  33  42 W18       29.85F
DODGE CITY     SUNNY     46  33  60 S18G26    29.78F
HAYS           SUNNY     43  31  62 S10       29.81F
GOODLAND       SUNNY     41  27  57 S23G29    29.66R
$$




USA.gov is the U.S. government's official web portal to all federal, state and local government web resources and services.